Weather reports worldwide

Advertisment
Banjarmasin/Syamsudin Noor, Indonesia (96685): temperature & dewpoint: 10.08.2018 19:00:00 - 16.08.2018 19:00:00 (WITA)Banjarmasin/Syamsudin Noor, Indonesia (96685): wind speed: 10.08.2018 19:00:00 - 16.08.2018 19:00:00 (WITA)Banjarmasin/Syamsudin Noor, Indonesia (96685): wind direction: 10.08.2018 19:00:00 - 16.08.2018 19:00:00 (WITA)Banjarmasin/Syamsudin Noor, Indonesia (96685): reduced air pressure: 10.08.2018 19:00:00 - 16.08.2018 19:00:00 (WITA)Banjarmasin/Syamsudin Noor, Indonesia (96685): visibility: 10.08.2018 19:00:00 - 16.08.2018 19:00:00 (WITA)
Date & Time tt [°C] td [°C] ff [km/h] ff [kn] dd ppp [hPa] vv [km]
16.08.2018 19:00:00 - - - - - - -
16.08.2018 18:00:00 - - - - - - -
16.08.2018 17:00:00 31,0 21,1 15 8 SSE 1006,1 10
16.08.2018 16:00:00 - - - - - - -
16.08.2018 15:00:00 - - - - - - -
16.08.2018 14:00:00 33,6 21,3 8 4 ENE 1006,7 10
16.08.2018 13:00:00 - - - - - - -
16.08.2018 12:00:00 - - - - - - -
16.08.2018 11:00:00 30,4 20,3 8 4 SW 1009,6 10
16.08.2018 10:00:00 - - - - - - -
16.08.2018 09:00:00 - - - - - - -
16.08.2018 08:00:00 23,6 21,3 0 0 N 1010,2 3,0
16.08.2018 07:00:00 22,0 21,0 0 0 N - 6
16.08.2018 06:00:00 21,0 20,0 4 2 SW - 3,8
16.08.2018 05:00:00 22,4 21,0 0 0 N 1009,0 7
16.08.2018 04:00:00 22,0 21,0 2 1 WNW - 3,6
16.08.2018 03:00:00 - - - - - - -
16.08.2018 02:00:00 23,6 21,6 0 0 N 1009,3 9
16.08.2018 01:00:00 23,0 21,0 4 2 W - 6
16.08.2018 00:00:00 - - - - - - -
15.08.2018 23:00:00 25,6 21,6 4 2 S 1009,9 9
15.08.2018 22:00:00 26,0 22,0 5 3 SSE - 9
15.08.2018 21:00:00 26,0 22,0 4 2 S - 10
15.08.2018 20:00:00 27,2 22,0 5 3 S 1009,1 10
15.08.2018 19:00:00 28,0 21,0 5 3 S - 10
15.08.2018 18:00:00 30,0 21,0 11 6 S - 9
15.08.2018 17:00:00 31,8 21,1 15 8 SW 1007,9 10
15.08.2018 16:00:00 - - - - - - -
15.08.2018 15:00:00 - - - - - - -
15.08.2018 14:00:00 34,0 19,7 4 2 N 1008,9 10
15.08.2018 13:00:00 - - - - - - -
15.08.2018 12:00:00 32,0 19,0 5 3 S - 10
15.08.2018 11:00:00 31,0 20,8 5 3 S 1011,6 10
15.08.2018 10:00:00 29,0 23,0 8 4 SSW - 8
15.08.2018 09:00:00 27,0 22,0 5 3 ENE - 8
15.08.2018 08:00:00 24,4 22,6 5 3 WNW 1011,8 5
15.08.2018 07:00:00 23,0 22,0 5 3 W - 7
15.08.2018 06:00:00 22,0 22,0 0 0 N - 8
15.08.2018 05:00:00 22,7 21,7 0 0 N 1010,3 9
15.08.2018 04:00:00 - - - - - - -
15.08.2018 03:00:00 - - - - - - -
15.08.2018 02:00:00 24,0 22,6 0 0 N 1010,4 9
15.08.2018 01:00:00 - - - - - - -
15.08.2018 00:00:00 - - - - - - -
14.08.2018 23:00:00 25,4 23,0 5 3 SSW 1010,6 9
14.08.2018 22:00:00 - - - - - - -
14.08.2018 21:00:00 26,0 23,0 0 0 N - 10
14.08.2018 20:00:00 27,6 22,9 5 3 S 1009,3 9
14.08.2018 19:00:00 - - - - - - -
14.08.2018 18:00:00 31,0 23,0 9 5 SSE - 10
14.08.2018 17:00:00 32,4 23,1 11 6 S 1007,6 10
14.08.2018 16:00:00 33,0 23,0 9 5 S - 10
14.08.2018 15:00:00 33,0 22,0 11 6 SE - 10
14.08.2018 14:00:00 33,2 22,1 8 4 SSE 1008,9 10
14.08.2018 13:00:00 33,0 23,0 5 3 NNE - 10
14.08.2018 12:00:00 32,0 22,0 5 3 SSE - 10
14.08.2018 11:00:00 31,4 23,4 9 5 S 1011,4 10
14.08.2018 10:00:00 - - - - - - -
14.08.2018 09:00:00 - - - - - - -
14.08.2018 08:00:00 24,8 23,1 4 2 WNW 1011,8 6
14.08.2018 07:00:00 23,0 22,0 4 2 S - 7
14.08.2018 06:00:00 23,0 22,0 0 0 N - 2,9
14.08.2018 05:00:00 23,2 21,9 0 0 N 1010,2 9
14.08.2018 04:00:00 - - - - - - -
14.08.2018 03:00:00 - - - - - - -
14.08.2018 02:00:00 24,0 22,6 0 0 N 1010,2 9
14.08.2018 01:00:00 - - - - - - -
14.08.2018 00:00:00 - - - - - - -
13.08.2018 23:00:00 25,8 22,9 0 0 N 1011,5 9
13.08.2018 22:00:00 - - - - - - -
13.08.2018 21:00:00 26,0 22,0 5 3 S - 10
13.08.2018 20:00:00 26,8 22,9 8 4 S 1010,6 7
13.08.2018 19:00:00 28,0 23,0 8 4 S - 10
13.08.2018 18:00:00 29,0 23,0 13 7 S - 10
13.08.2018 17:00:00 29,8 23,8 15 8 S 1008,8 10
13.08.2018 16:00:00 30,0 24,0 9 5 SW - 10
13.08.2018 15:00:00 31,0 22,0 5 3 SSW - 10
13.08.2018 14:00:00 30,0 24,9 9 5 NW 1009,7 9
13.08.2018 13:00:00 - - - - - - -
13.08.2018 12:00:00 32,0 24,0 9 5 NE - 10
13.08.2018 11:00:00 30,1 23,3 4 2 E 1012,2 10
13.08.2018 10:00:00 29,0 23,0 4 2 SE - 9
13.08.2018 09:00:00 - - - - - - -
13.08.2018 08:00:00 25,4 22,9 4 2 SW 1012,4 4,0
13.08.2018 07:00:00 - - - - - - -
13.08.2018 06:00:00 - - - - - - -
13.08.2018 05:00:00 24,2 21,9 0 0 N 1010,8 8
13.08.2018 04:00:00 - - - - - - -
13.08.2018 03:00:00 - - - - - - -
13.08.2018 02:00:00 25,2 22,1 0 0 N 1010,6 9
13.08.2018 01:00:00 - - - - - - -
13.08.2018 00:00:00 - - - - - - -
12.08.2018 23:00:00 26,0 22,3 0 0 N 1010,9 9
12.08.2018 22:00:00 - - - - - - -
12.08.2018 21:00:00 - - - - - - -
12.08.2018 20:00:00 28,3 22,3 4 2 SSE 1009,8 10
12.08.2018 19:00:00 - - - - - - -
12.08.2018 18:00:00 - - - - - - -
12.08.2018 17:00:00 32,2 21,9 15 8 S 1007,6 10
12.08.2018 16:00:00 - - - - - - -
12.08.2018 15:00:00 34,0 22,0 15 8 ENE - 10
12.08.2018 14:00:00 33,7 22,5 13 7 ESE 1008,9 10
12.08.2018 13:00:00 33,0 21,0 11 6 ESE - 10
12.08.2018 12:00:00 32,0 21,0 8 4 SE - 10
12.08.2018 11:00:00 30,2 22,7 5 3 SE 1011,4 10
12.08.2018 10:00:00 - - - - - - -
12.08.2018 09:00:00 28,0 22,0 5 3 W - 8
12.08.2018 08:00:00 25,0 23,2 0 0 N 1010,8 4,0
12.08.2018 07:00:00 24,0 23,0 0 0 N - 0,8
12.08.2018 06:00:00 23,0 22,0 2 1 SW - 4,0
12.08.2018 05:00:00 24,0 22,6 0 0 N 1009,6 5
12.08.2018 04:00:00 - - - - - - -
12.08.2018 03:00:00 - - - - - - -
12.08.2018 02:00:00 24,4 22,4 4 2 WNW 1009,7 3,0
12.08.2018 01:00:00 24,0 22,0 4 2 W - 4,3
12.08.2018 00:00:00 24,0 22,0 2 1 WNW - 3,6
11.08.2018 23:00:00 25,8 22,4 0 0 N 1010,9 4,0
11.08.2018 22:00:00 26,0 22,0 4 2 SSW - 4,0
11.08.2018 21:00:00 27,0 22,0 4 2 SW - 6
11.08.2018 20:00:00 28,0 21,5 5 3 S 1009,5 9
11.08.2018 19:00:00 - - - - - - -
11.08.2018 18:00:00 - - - - - - -
11.08.2018 17:00:00 31,6 22,4 8 4 SW 1007,3 10
11.08.2018 16:00:00 - - - - - - -
11.08.2018 15:00:00 - - - - - - -
11.08.2018 14:00:00 32,2 21,6 13 7 ESE 1008,3 10
11.08.2018 13:00:00 - - - - - - -
11.08.2018 12:00:00 - - - - - - -
11.08.2018 11:00:00 31,6 22,1 11 6 S 1011,2 10
11.08.2018 10:00:00 - - - - - - -
11.08.2018 09:00:00 - - - - - - -
11.08.2018 08:00:00 24,8 23,1 4 2 SSW 1011,5 10
11.08.2018 07:00:00 24,0 23,0 4 2 WSW - 9
11.08.2018 06:00:00 24,0 22,0 0 0 N - 7
11.08.2018 05:00:00 24,4 22,7 5 3 SSW 1010,2 9
11.08.2018 04:00:00 - - - - - - -
11.08.2018 03:00:00 - - - - - - -
11.08.2018 02:00:00 25,4 22,6 0 0 N 1010,7 5
11.08.2018 01:00:00 25,0 22,0 2 1 WSW - 7
11.08.2018 00:00:00 25,0 22,0 2 1 NW - 6
10.08.2018 23:00:00 26,0 22,5 4 2 WSW 1012,3 6
10.08.2018 22:00:00 27,0 22,0 4 2 SW - 7
10.08.2018 21:00:00 - - - - - - -
10.08.2018 20:00:00 27,8 22,5 4 2 SSE 1010,8 10
10.08.2018 19:00:00 - - - - - - -

tt = temperature
td = dewpoint
ff = wind speed
dd = wind direction
ppp = reduced air pressure
vv = visibility

Next stations